[[{"header":{"parameterUnit":"m.s-1","parameterCategory":2,"la1":30.2991,"la2":30.254,"lo1":-89.0895,"lo2":-89.0444,"dy":0.0017,"dx":0.0017,"nx":28,"ny":28,"refTime":"2024-02-20T03:00:00:Z","depth":"0","parameterNumber":2,"parameterNumberName":"U-component_of_CURRENTS"},"data":[0,0,0,0,0,0,0,0,0,0,0,0,0,0,0,0,0,0,0,0,0,0,0,0,0,0,0,0,0,0,0,0,0,0,0,0,0,0,0,0,0,0,0,0,0,0,0,0,0,0,0,0,0,0,0,0,0,0,0.4072,0.4073,0,0.4122,0.4122,0.4122,0.4105,0.4105,0.4104,0.4103,0.4088,0.4088,0.4088,0,0,0,0,0,0,0,0,0,0,0,0,0,0.3977,0.3978,0.4072,0.4073,0.4074,0.4122,0.4122,0.4122,0.4105,0.4105,0.4104,0.4103,0.4088,0.4088,0.4088,0,0,0,0,0,0,0,0,0,0,0,0,0,0.4017,0.3979,0.4072,0.4075,0.4077,0.4122,0.4122,0.4122,0.4106,0.4105,0.4104,0.4103,0.4088,0.4088,0.4088,0.4108,0,0,0.4089,0.4089,0,0,0,0,0,0,0,0,0.4014,0.4019,0.4074,0.4075,0.4077,0.4111,0.4083,0.4116,0.4106,0.4089,0.4103,0.4102,0.4094,0.4093,0.4098,0.4108,0.4107,0.4089,0.4089,0.4089,0.4089,0,0,0,0,0,0,0,0.4012,0.4017,0.4087,0.4075,0.4077,0.408,0.4084,0.4089,0.4091,0.4091,0.4091,0.4105,0.4093,0.4098,0.4098,0.4107,0.4089,0.4089,0.4089,0.409,0.4176,0.4178,0,0,0,0,0,0,0.4016,0.4015,0.4085,0.4089,0.4048,0.4082,0.4087,0.4097,0.4092,0.4093,0.4105,0.4104,0.4098,0.4098,0.4097,0.4147,0.4089,0.409,0.409,0.4174,0.4177,0.4179,0,0,0,0,0,0,0.4014,0.4022,0.4083,0.4057,0.4066,0.4086,0.4097,0.4098,0.411,0.4105,0.4103,0.4117,0.4097,0.4097,0.4117,0.4145,0.409,0.409,0.4172,0.4175,0.4178,0.423,0,0,0,0,0,0,0.4011,0.4021,0.4029,0.4057,0.4067,0.4118,0.4098,0.41,0.4122,0.412,0.4114,0.4111,0.4097,0.4117,0.4117,0.4144,0.409,0.4169,0.4173,0.4177,0.4226,0.4235,0.4242,0,0,0,0,0,0.4007,0.4025,0.4029,0.4038,0.4078,0.4119,0.4125,0.4132,0.4124,0.4136,0.4136,0.4112,0.4143,0.4119,0.4118,0.4147,0.4167,0.4172,0.4177,0.4222,0.4233,0.4242,0,0,0,0,0,0,0.399,0.4027,0.4031,0.4059,0.4091,0.4118,0.4137,0.4141,0.4152,0.415,0.4134,0.4132,0.4167,0.4155,0.4128,0.4188,0.4154,0.4159,0.4188,0.4198,0.4207,0.4228,0.409,0,0,0,0,0,0.3992,0.4012,0.405,0.4074,0.4093,0.4116,0.4134,0.4142,0.4159,0.4163,0.416,0.4166,0.4189,0.4189,0.4204,0.4228,0.4246,0.425,0.4259,0.4266,0.4286,0.4334,0.4348,0.4195,0.4195,0.4195,0,0,0.3993,0.4017,0.4028,0.4072,0.4096,0.413,0.4123,0.416,0.4187,0.416,0.419,0.4198,0.4206,0.4239,0.4253,0.4228,0.4323,0.4272,0.4277,0.4295,0.4341,0.4355,0.4369,0.4198,0.4198,0.4197,0,0,0.4004,0.4028,0.4047,0.4078,0.4124,0.4147,0.4162,0.4196,0.4211,0.4241,0.4243,0.4273,0.4281,0.4306,0.4316,0.4383,0.4373,0.4383,0.443,0.4476,0.4489,0.45,0.4554,0.4569,0.4376,0.4377,0.4377,0,0.4004,0.4031,0.4061,0.4092,0.4118,0.4157,0.4185,0.4221,0.4255,0.4274,0.4255,0.4315,0.432,0.4382,0.441,0.4402,0.4427,0.4384,0.4486,0.4497,0.4508,0.456,0.4577,0.438,0.4379,0.4379,0.4379,0,0.4025,0.4054,0.4075,0.4123,0.4156,0.4193,0.4245,0.4278,0.4295,0.4325,0.4385,0.4403,0.4434,0.4448,0.4448,0.4535,0.4528,0.4496,0.4455,0.4527,0.4577,0.4594,0.4384,0.4383,0.4382,0.4381,0,0,0.4004,0.4073,0.4078,0.4099,0.4173,0.4199,0.4262,0.4324,0.4384,0.4405,0.4468,0.4515,0.4529,0.4546,0.4557,0.4605,0.4708,0.4587,0.4588,0.4633,0.4822,0.479,0.4804,0.4685,0.4688,0.4691,0.4831,0,0.401,0.4051,0.4092,0.4142,0.417,0.4228,0.4291,0.4353,0.4418,0.4497,0.453,0.4605,0.4566,0.4603,0.4639,0.4708,0.4752,0.4674,0.4754,0.4757,0.4712,0.4822,0.4669,0.4779,0.4847,0.4849,0.4851,0,0.4005,0.4037,0.4072,0.4149,0.4169,0.4211,0.4314,0.4384,0.4512,0.4568,0.4634,0.4677,0.4769,0.4723,0.4839,0.4789,0.4814,0.485,0.4854,0.4819,0.4755,0.4718,0.4805,0.4673,0.4876,0.4874,0.4872,0,0.3943,0.402,0.4039,0.4064,0.4164,0.4193,0.4261,0.4392,0.4471,0.4636,0.4694,0.4799,0.4859,0.4908,0.4957,0.4914,0.5085,0.5023,0.5015,0.5012,0.4898,0.4881,0.486,0.5103,0.5103,0.5102,0.5102,0,0.3919,0.3937,0.4013,0.4023,0.4082,0.4164,0.4262,0.4362,0.4517,0.4614,0.4723,0.481,0.4909,0.4993,0.5018,0.5081,0.5121,0.5065,0.5059,0.4913,0.4896,0.4787,0.4718,0.5108,0.5106,0.5105,0.5104,0,0.3842,0.389,0.3923,0.4014,0.405,0.4092,0.4243,0.4315,0.4483,0.4613,0.4662,0.485,0.4986,0.5064,0.5197,0.516,0.5098,0.5228,0.5062,0.5034,0.488,0.482,0.4685,0.4549,0.5258,0.5258,0.5258,0,0.38,0.3806,0.3893,0.391,0.395,0.4036,0.4091,0.4279,0.437,0.4615,0.4659,0.4859,0.4976,0.5174,0.5212,0.5288,0.5104,0.5149,0.5034,0.489,0.4819,0.4636,0.4516,0.4912,0.491,0.4908,0.4906,0,0.3724,0.3753,0.3781,0.3823,0.3865,0.3929,0.4033,0.4105,0.4316,0.4434,0.4621,0.4754,0.4989,0.504,0.5155,0.5167,0.4915,0.5106,0.4992,0.4597,0.436,0.4218,0.4812,0.4886,0.4888,0.489,0.4891,0.4891,0.3659,0.3659,0.369,0.3716,0.3759,0.379,0.3797,0.3928,0.4052,0.4197,0.4458,0.4582,0.48,0.4977,0.4949,0.4832,0.4806,0.4694,0.4655,0.4499,0.4289,0.4857,0.4893,0.4894,0.4896,0.4898,0.4899,0,0.3554,0.3559,0.3577,0.3587,0.3559,0.364,0.3712,0.3694,0.3757,0.398,0.4141,0.4344,0.4421,0.4528,0.4564,0.4416,0.4198,0.4278,0.3972,0.3893,0.4445,0.4349,0.4222,0.4222,0.4223,0.4223,0.4223,0.4223,0.3499,0.3458,0.3459,0.3373,0.3373,0.3294,0.3294,0.3312,0.3427,0.3531,0.3641,0.3843,0.4158,0.4296,0.4186,0.4076,0.3744,0.3594,0.3558,0.3947,0.398,0.4013,0.3906,0.3689,0.3688,0.2858,0.2852,0.2847]},{"header":{"parameterUnit":"m.s-1","parameterCategory":2,"la1":30.2991,"la2":30.254,"lo1":-89.0895,"lo2":-89.0444,"dy":0.0017,"dx":0.0017,"nx":28,"ny":28,"refTime":"2024-02-20T03:00:00:Z","depth":"0","parameterNumber":3,"parameterNumberName":"V-component_of_CURRENTS"},"data":[0,0,0,0,0,0,0,0,0,0,0,0,0,0,0,0,0,0,0,0,0,0,0,0,0,0,0,0,0,0,0,0,0,0,0,0,0,0,0,0,0,0,0,0,0,0,0,0,0,0,0,0,0,0,0,0,0,0,0.0226,0.0225,0,0.0134,0.0133,0.0131,0.0069,0.0069,0.0069,0.0069,-0.0057,-0.006,-0.0064,0,0,0,0,0,0,0,0,0,0,0,0,0,0.0286,0.0285,0.0226,0.0225,0.0224,0.0134,0.0133,0.0131,0.007,0.0069,0.0069,0.0069,-0.0056,-0.006,-0.0064,0,0,0,0,0,0,0,0,0,0,0,0,0,0.0231,0.0285,0.0226,0.0185,0.018,0.0134,0.0132,0.0131,0.007,0.0069,0.0069,0.0069,-0.0055,-0.006,-0.0064,-0.0089,0,0,-0.0079,-0.0081,0,0,0,0,0,0,0,0,0.0234,0.0229,0.0192,0.0187,0.0182,0.0115,0.0107,0.0057,0.007,0.0109,0.0069,0.0069,-0.0001,-0.001,-0.003,-0.0094,-0.01,-0.008,-0.0082,-0.0084,-0.0086,0,0,0,0,0,0,0,0.0238,0.0232,0.0187,0.0191,0.0185,0.0149,0.0142,0.0097,0.0054,0.0105,0.0101,0.0095,-0.0004,-0.0025,-0.0034,-0.0102,-0.0079,-0.0084,-0.0087,-0.0088,-0.017,-0.017,0,0,0,0,0,0,0.0259,0.0236,0.019,0.0184,0.0211,0.0149,0.014,0.0135,0.0055,0.0043,0.0096,0.0093,-0.0017,-0.0028,-0.0038,-0.0038,-0.0084,-0.0089,-0.0092,-0.0171,-0.017,-0.0169,0,0,0,0,0,0,0.026,0.0256,0.0193,0.021,0.02,0.0149,0.0143,0.0133,0.0119,0.0049,0.0036,0.0093,-0.0018,-0.0032,-0.0061,-0.0044,-0.0091,-0.0095,-0.0172,-0.0171,-0.017,-0.0058,0,0,0,0,0,0,0.0262,0.0257,0.026,0.0212,0.02,0.0182,0.0143,0.0132,0.0117,0.0112,0.0042,0.0029,-0.0019,-0.0053,-0.0065,-0.0052,-0.0099,-0.0173,-0.0171,-0.017,-0.0063,-0.0054,-0.0046,0,0,0,0,0,0.0265,0.0279,0.0261,0.0256,0.0207,0.0183,0.0174,0.0134,0.0117,0.0119,0.0075,0.0032,-0.0054,-0.0056,-0.0071,-0.0058,-0.0173,-0.0172,-0.017,-0.0067,-0.0055,-0.0046,0,0,0,0,0,0,0.0308,0.0273,0.0252,0.0255,0.0227,0.0174,0.0173,0.0145,0.011,0.0109,0.004,0.0025,0.0003,-0.0041,-0.0042,-0.0078,-0.0121,-0.0122,-0.0037,-0.0027,-0.0019,0.0009,-0.0103,0,0,0,0,0,0.032,0.032,0.0279,0.0282,0.0273,0.0224,0.021,0.0186,0.0149,0.0133,0.0083,0.0035,-0.0004,-0.0024,-0.0069,-0.0086,-0.0132,-0.0089,-0.008,-0.0072,-0.006,-0.011,-0.0104,-0.0164,-0.0164,-0.0164,0,0,0.0337,0.0318,0.0318,0.0291,0.0265,0.027,0.0215,0.0206,0.021,0.0125,0.0115,0.0061,-0.0002,-0.0022,-0.0035,-0.0054,-0.008,-0.007,-0.0063,-0.0055,-0.0108,-0.0102,-0.0097,-0.0163,-0.0163,-0.0163,0,0,0.0381,0.0357,0.0375,0.0357,0.0332,0.0309,0.0314,0.0269,0.0249,0.023,0.0173,0.0137,0.0072,0.0035,0.0008,0.0037,-0.0034,0.0018,0.0087,0.0038,0.0043,0.0047,-0.0002,-0.0003,0.0026,0.0026,0.0026,0,0.0401,0.0419,0.0377,0.0389,0.0391,0.0336,0.0364,0.0335,0.0287,0.0281,0.0244,0.0158,0.0101,0.0084,0.0093,0.0057,0.0017,0.0055,0.0051,0.0053,0.0055,0.0004,0.0001,0.0031,0.0031,0.003,0.003,0,0.0454,0.047,0.0482,0.0484,0.048,0.0493,0.0458,0.0449,0.0418,0.0386,0.0354,0.0269,0.0224,0.0195,0.0152,0.0142,0.0104,0.0067,0.003,0.0068,0.0012,0.0007,0.0039,0.0037,0.0036,0.0034,0,0,0.0498,0.0518,0.0523,0.0547,0.0535,0.054,0.0553,0.0553,0.0575,0.0499,0.0509,0.0424,0.0374,0.0339,0.0271,0.0224,0.0196,0.0162,0.0156,0.0123,0.0089,0.008,0.0072,0.0157,0.0157,0.0157,0.0046,0,0.0556,0.0619,0.0607,0.0669,0.0704,0.0666,0.0688,0.0675,0.0653,0.0645,0.0548,0.0526,0.0431,0.0413,0.0352,0.024,0.0187,0.023,0.0048,0.0043,0.0038,0.0068,0.0114,0.0021,0.004,0.0039,0.0038,0,0.0613,0.0654,0.073,0.0779,0.0789,0.0813,0.0849,0.0865,0.0839,0.0818,0.0769,0.0688,0.0613,0.0521,0.0347,0.0379,0.0249,0.0148,0.0141,0.0092,0.0025,-0.0017,0.0009,-0.0231,0.0029,0.003,0.0031,0,0.0678,0.0739,0.0812,0.0823,0.0864,0.0889,0.0916,0.092,0.0965,0.0935,0.0952,0.0829,0.0782,0.0605,0.0396,0.0371,0.0198,0.0133,-0.0003,-0.0006,-0.0022,-0.0025,-0.0239,0.0007,0.0007,0.0007,0.0008,0,0.0747,0.0801,0.0848,0.0882,0.0977,0.0972,0.1072,0.1072,0.1107,0.1177,0.1052,0.107,0.0802,0.0665,0.045,0.0224,0.0236,0.0019,-0.0029,0.0018,0.002,-0.0235,-0.0356,0.0003,0.0004,0.0005,0.0006,0,0.0804,0.0831,0.0921,0.0984,0.1011,0.1082,0.1191,0.1264,0.1277,0.1361,0.1357,0.1256,0.1085,0.0809,0.0527,0.0317,-0.0038,-0.0002,0.0074,0.0037,-0.0319,-0.0432,-0.0691,-0.0781,-0.0175,-0.0176,-0.0176,0,0.0838,0.0892,0.1001,0.1068,0.11,0.1209,0.1291,0.1346,0.1444,0.1486,0.1537,0.1401,0.1352,0.0944,0.0546,0.0174,-0.0058,-0.0048,-0.0093,-0.0322,-0.0486,-0.0586,-0.0649,-0.008,-0.008,-0.0079,-0.0079,0,0.0909,0.0948,0.1023,0.1169,0.1266,0.1401,0.1525,0.1629,0.17,0.1779,0.1857,0.1824,0.1438,0.1093,0.0573,0.031,-0.019,-0.0057,-0.0317,-0.0438,-0.0539,-0.0651,-0.0034,-0.0078,-0.0078,-0.0078,-0.0078,-0.0078,0.096,0.1034,0.1139,0.1277,0.1404,0.1575,0.1704,0.185,0.2026,0.217,0.2112,0.2129,0.1592,0.0909,0.0517,-0.019,-0.0214,-0.0414,-0.0536,-0.0621,-0.0696,-0.0069,-0.0152,-0.0153,-0.0153,-0.0154,-0.0154,0,0.1024,0.111,0.124,0.141,0.1564,0.1622,0.1846,0.1996,0.2217,0.2371,0.2458,0.222,0.1577,0.0898,-0.007,-0.0584,-0.0754,-0.0866,-0.1011,-0.1056,-0.0518,-0.0502,-0.0635,-0.0635,-0.0635,-0.0634,-0.0634,-0.0634,0.1058,0.1187,0.1258,0.1511,0.164,0.1859,0.1999,0.2225,0.2404,0.2619,0.2667,0.2659,0.2109,0.0358,-0.0833,-0.1094,-0.1432,-0.1505,-0.1703,-0.1357,-0.1325,-0.1295,-0.131,-0.1611,-0.1612,-0.2164,-0.217,-0.2174]}],[{"header":{"parameterUnit":"m.s-1","parameterCategory":2,"la1":30.2991,"la2":30.254,"lo1":-89.0895,"lo2":-89.0444,"dy":0.0017,"dx":0.0017,"nx":28,"ny":28,"refTime":"2024-02-20T03:00:00:Z","depth":"2","parameterNumber":2,"parameterNumberName":"U-component_of_CURRENTS"},"data":[0,0,0,0,0,0,0,0,0,0,0,0,0,0,0,0,0,0,0,0,0,0,0,0,0,0,0,0,0,0,0,0,0,0,0,0,0,0,0,0,0,0,0,0,0,0,0,0,0,0,0,0,0,0,0,0,0,0,0.3431,0.3432,0,0.3475,0.3475,0.3475,0.3473,0.3472,0.3472,0.3472,0.348,0.348,0.3481,0,0,0,0,0,0,0,0,0,0,0,0,0,0.3347,0.3349,0.3431,0.3432,0.3433,0.3475,0.3475,0.3475,0.3473,0.3472,0.3472,0.3472,0.348,0.348,0.3481,0,0,0,0,0,0,0,0,0,0,0,0,0,0.3383,0.3349,0.3431,0.344,0.3441,0.3475,0.3475,0.3475,0.3473,0.3472,0.3472,0.3472,0.348,0.348,0.3481,0.3492,0,0,0.3483,0.3483,0,0,0,0,0,0,0,0,0.3381,0.3385,0.3437,0.3439,0.3441,0.3472,0.3449,0.3481,0.3473,0.3456,0.3472,0.3472,0.3477,0.3478,0.3481,0.3493,0.3493,0.3483,0.3483,0.3484,0.3484,0,0,0,0,0,0,0,0.3378,0.3383,0.3444,0.3438,0.3441,0.3443,0.3447,0.3455,0.3464,0.3458,0.3459,0.3471,0.3477,0.3481,0.3481,0.3493,0.3483,0.3484,0.3484,0.3484,0.3582,0.3584,0,0,0,0,0,0,0.3382,0.3381,0.3443,0.3446,0.3414,0.3445,0.3449,0.3459,0.3465,0.3467,0.3471,0.347,0.348,0.3481,0.3482,0.3545,0.3484,0.3484,0.3485,0.358,0.3582,0.3585,0,0,0,0,0,0,0.338,0.3387,0.3441,0.3418,0.3425,0.3447,0.3457,0.346,0.3479,0.3476,0.3476,0.3489,0.3479,0.3481,0.351,0.3543,0.3485,0.3485,0.3577,0.3581,0.3584,0.3639,0,0,0,0,0,0,0.3377,0.3386,0.3397,0.3418,0.3427,0.3474,0.3458,0.3461,0.3488,0.3488,0.3492,0.3491,0.3479,0.3509,0.351,0.3543,0.3486,0.3574,0.3579,0.3583,0.3635,0.3644,0.3652,0,0,0,0,0,0.3374,0.3392,0.3397,0.3405,0.344,0.3475,0.348,0.3491,0.3489,0.3504,0.3512,0.3492,0.3536,0.3511,0.3512,0.3546,0.3572,0.3577,0.3582,0.3631,0.3642,0.3652,0,0,0,0,0,0,0.3364,0.3395,0.34,0.3428,0.3456,0.3477,0.3497,0.3504,0.3522,0.3525,0.3514,0.3515,0.3559,0.3548,0.352,0.359,0.3554,0.3559,0.3591,0.3601,0.361,0.363,0.3486,0,0,0,0,0,0.3367,0.3389,0.3419,0.3443,0.346,0.3482,0.3499,0.351,0.3529,0.3537,0.3541,0.3554,0.3579,0.3585,0.3604,0.3632,0.3646,0.3659,0.3668,0.3675,0.3695,0.3738,0.3752,0.3601,0.3601,0.3601,0,0,0.337,0.3393,0.3404,0.3443,0.3465,0.3497,0.3491,0.3529,0.3557,0.3535,0.3575,0.3588,0.3598,0.3637,0.3655,0.363,0.3729,0.3681,0.3687,0.3704,0.3745,0.3759,0.3772,0.3604,0.3604,0.3603,0,0,0.3385,0.3409,0.343,0.3457,0.3501,0.3521,0.3537,0.3571,0.3589,0.3626,0.3631,0.3668,0.3685,0.3709,0.372,0.379,0.3781,0.3795,0.3844,0.3886,0.3898,0.3909,0.3956,0.3971,0.379,0.379,0.379,0,0.3388,0.3415,0.3443,0.3472,0.3497,0.3535,0.3563,0.3598,0.3636,0.3657,0.3647,0.3716,0.3724,0.3786,0.3817,0.381,0.3833,0.3797,0.3896,0.3907,0.3918,0.3963,0.3979,0.3793,0.3793,0.3792,0.3792,0,0.341,0.344,0.3461,0.3508,0.3539,0.3577,0.3625,0.3663,0.3688,0.3716,0.3784,0.3806,0.3843,0.3859,0.3859,0.3946,0.3939,0.3907,0.3864,0.3936,0.398,0.3995,0.3798,0.3797,0.3796,0.3795,0,0,0.339,0.3461,0.3467,0.3489,0.356,0.3585,0.3651,0.3711,0.3771,0.3803,0.3868,0.3921,0.394,0.3958,0.3971,0.4015,0.4114,0.4,0.4,0.4039,0.4219,0.4163,0.4174,0.4094,0.4097,0.4099,0.4223,0,0.3398,0.3443,0.3483,0.3535,0.3563,0.3621,0.3683,0.3746,0.3812,0.3892,0.3929,0.4008,0.3976,0.4019,0.4053,0.4114,0.4156,0.4085,0.4151,0.4154,0.4088,0.419,0.386,0.3938,0.4237,0.424,0.4242,0,0.3396,0.3429,0.347,0.3547,0.3567,0.3612,0.3716,0.3785,0.3909,0.3965,0.4036,0.4082,0.4174,0.4135,0.4241,0.4197,0.422,0.4249,0.4253,0.4193,0.4127,0.3914,0.3954,0.4267,0.4265,0.4263,0.4261,0,0.334,0.3417,0.3444,0.3469,0.3568,0.3604,0.3673,0.3798,0.3875,0.4037,0.4098,0.4199,0.4264,0.4308,0.4352,0.4315,0.4465,0.4407,0.4375,0.4371,0.4101,0.4068,0.4482,0.4482,0.4481,0.4481,0.4481,0,0.3319,0.3341,0.3424,0.3438,0.3501,0.3583,0.3683,0.3779,0.3929,0.4023,0.4134,0.4217,0.4313,0.4389,0.4408,0.4448,0.4498,0.4421,0.441,0.4113,0.4082,0.4365,0.435,0.4486,0.4485,0.4484,0.4483,0,0.3249,0.3301,0.3339,0.3436,0.3473,0.352,0.3671,0.3741,0.3906,0.4034,0.4088,0.4262,0.438,0.445,0.4565,0.4518,0.457,0.456,0.4218,0.4165,0.4437,0.4423,0.4557,0.4556,0.4556,0.4555,0.4555,0,0.3212,0.3224,0.3316,0.3337,0.3382,0.3473,0.3531,0.3711,0.3798,0.4037,0.408,0.4265,0.4351,0.4507,0.4509,0.4555,0.4593,0.425,0.4118,0.4475,0.4451,0.4438,0.4425,0.3785,0.3778,0.3773,0.3768,0,0.3144,0.3178,0.3209,0.3258,0.3306,0.3368,0.3476,0.3541,0.3747,0.3862,0.4021,0.4125,0.4296,0.4216,0.4296,0.4265,0.4221,0.4143,0.4606,0.3824,0.3758,0.3731,0.3741,0.372,0.3724,0.3728,0.3731,0.3733,0.3086,0.3087,0.3126,0.3158,0.3205,0.3232,0.3238,0.3364,0.3477,0.3603,0.3824,0.3863,0.3951,0.3923,0.3827,0.3759,0.4044,0.3842,0.3854,0.3872,0.3767,0.3705,0.3638,0.3642,0.3646,0.3649,0.3652,0,0.2989,0.2997,0.3019,0.3033,0.301,0.3095,0.3159,0.3132,0.3182,0.3351,0.3465,0.3276,0.3265,0.3329,0.3169,0.3202,0.3117,0.3056,0.2895,0.295,0.2997,0.284,0.2468,0.2464,0.246,0.2456,0,0,0.2936,0.2901,0.2901,0.2823,0.2833,0.2759,0.2755,0.2754,0.2824,0.2829,0.2847,0.3122,0.3256,0.2811,0.278,0.2578,0.2725,0.2485,0.345,0.3316,0.3356,0.349,0.3318,0,0,0,0,0]},{"header":{"parameterUnit":"m.s-1","parameterCategory":2,"la1":30.2991,"la2":30.254,"lo1":-89.0895,"lo2":-89.0444,"dy":0.0017,"dx":0.0017,"nx":28,"ny":28,"refTime":"2024-02-20T03:00:00:Z","depth":"2","parameterNumber":3,"parameterNumberName":"V-component_of_CURRENTS"},"data":[0,0,0,0,0,0,0,0,0,0,0,0,0,0,0,0,0,0,0,0,0,0,0,0,0,0,0,0,0,0,0,0,0,0,0,0,0,0,0,0,0,0,0,0,0,0,0,0,0,0,0,0,0,0,0,0,0,0,0.0234,0.0233,0,0.0152,0.015,0.0149,0.0096,0.0096,0.0095,0.0095,-0.0017,-0.002,-0.0023,0,0,0,0,0,0,0,0,0,0,0,0,0,0.0287,0.0287,0.0234,0.0233,0.0233,0.0152,0.015,0.0149,0.0096,0.0096,0.0095,0.0095,-0.0016,-0.002,-0.0023,0,0,0,0,0,0,0,0,0,0,0,0,0,0.0239,0.0287,0.0234,0.0198,0.0194,0.0152,0.015,0.0149,0.0096,0.0096,0.0095,0.0095,-0.0015,-0.0019,-0.0024,-0.0046,0,0,-0.0037,-0.0039,0,0,0,0,0,0,0,0,0.0241,0.0236,0.0204,0.02,0.0196,0.0136,0.0128,0.0083,0.0096,0.0131,0.0095,0.0095,0.0033,0.0025,0.0007,-0.0052,-0.0056,-0.0037,-0.004,-0.0042,-0.0043,0,0,0,0,0,0,0,0.0245,0.0239,0.0199,0.0203,0.0198,0.0166,0.0159,0.0119,0.0082,0.0128,0.0124,0.0119,0.003,0.0011,0.0004,-0.0058,-0.0037,-0.0041,-0.0044,-0.0045,-0.0124,-0.0123,0,0,0,0,0,0,0.0263,0.0243,0.0202,0.0197,0.0221,0.0165,0.0158,0.0153,0.0082,0.0072,0.0119,0.0116,0.0018,0.0009,-0.0001,-0.0003,-0.0042,-0.0046,-0.0048,-0.0124,-0.0123,-0.0123,0,0,0,0,0,0,0.0264,0.026,0.0205,0.022,0.0211,0.0165,0.0161,0.0152,0.0139,0.0077,0.0065,0.0116,0.0018,0.0005,-0.0022,-0.0009,-0.0048,-0.0051,-0.0125,-0.0124,-0.0123,-0.0026,0,0,0,0,0,0,0.0266,0.0261,0.0265,0.0221,0.0211,0.0194,0.0161,0.015,0.0137,0.0133,0.0071,0.0059,0.0017,-0.0015,-0.0026,-0.0016,-0.0055,-0.0125,-0.0124,-0.0123,-0.003,-0.0022,-0.0016,0,0,0,0,0,0.0269,0.0281,0.0266,0.0261,0.0218,0.0195,0.0186,0.0151,0.0137,0.0138,0.0099,0.0062,-0.0017,-0.0017,-0.0031,-0.0021,-0.0126,-0.0125,-0.0123,-0.0033,-0.0024,-0.0016,0,0,0,0,0,0,0.0307,0.0276,0.0258,0.0261,0.0235,0.0187,0.0185,0.0161,0.0129,0.0129,0.0068,0.0055,0.0034,-0.0006,-0.0006,-0.0042,-0.0078,-0.0079,-0.0005,0.0003,0.0011,0.0036,-0.0058,0,0,0,0,0,0.0318,0.0319,0.0281,0.0284,0.0275,0.0232,0.0219,0.0197,0.0164,0.015,0.0105,0.0061,0.0026,0.0007,-0.0033,-0.0051,-0.0095,-0.0055,-0.0047,-0.0041,-0.0029,-0.0081,-0.0077,-0.0119,-0.0119,-0.0119,0,0,0.0333,0.0317,0.0317,0.0292,0.0269,0.0272,0.0223,0.0215,0.0217,0.0142,0.0132,0.0084,0.0027,0.0008,-0.0005,-0.0023,-0.0052,-0.0039,-0.0033,-0.0025,-0.0079,-0.0075,-0.0072,-0.0118,-0.0119,-0.0119,0,0,0.0372,0.0352,0.0367,0.0351,0.0328,0.0307,0.031,0.0269,0.0251,0.0232,0.0182,0.0147,0.009,0.0054,0.0028,0.0051,-0.0013,0.0036,0.0093,0.0044,0.0047,0.0049,-0.0,-0.0003,0.0041,0.0041,0.0041,0,0.039,0.0406,0.0368,0.0379,0.038,0.0331,0.0354,0.0327,0.0283,0.0275,0.0244,0.0164,0.0113,0.0092,0.01,0.0068,0.003,0.0068,0.0054,0.0056,0.0056,0.0005,0.0001,0.0046,0.0045,0.0045,0.0044,0,0.0436,0.0451,0.0461,0.0462,0.0458,0.0469,0.0436,0.0425,0.0398,0.0368,0.0335,0.0258,0.0215,0.0188,0.0151,0.0135,0.0103,0.007,0.0037,0.0067,0.001,0.0004,0.0053,0.0051,0.0049,0.0048,0,0,0.0474,0.0493,0.0496,0.0518,0.0506,0.051,0.0519,0.0514,0.0531,0.0462,0.0465,0.0388,0.0342,0.031,0.0248,0.0201,0.0168,0.0149,0.0144,0.0109,0.0059,0.004,0.0031,0.0134,0.0134,0.0133,0.0019,0,0.0525,0.058,0.057,0.0625,0.0655,0.0621,0.0637,0.0622,0.06,0.0587,0.0495,0.0473,0.039,0.0375,0.0314,0.021,0.0156,0.0202,0.0028,0.0023,0.001,0.0025,0.0069,-0.0029,0.0012,0.0011,0.001,0,0.0575,0.0611,0.0679,0.0722,0.0731,0.0751,0.078,0.0791,0.0759,0.0737,0.0687,0.0614,0.0538,0.0461,0.0291,0.0326,0.0207,0.0113,0.0106,0.0052,-0.0007,-0.0054,-0.0043,-0.0001,-0.0,0.0,0.0001,0,0.0632,0.0686,0.0752,0.0761,0.0797,0.0819,0.0842,0.0839,0.0876,0.0839,0.0851,0.0732,0.0684,0.052,0.0326,0.031,0.0134,0.0082,-0.0054,-0.0057,-0.0072,-0.0075,-0.004,-0.004,-0.004,-0.004,-0.0039,0,0.0692,0.074,0.0784,0.0814,0.0899,0.0894,0.0982,0.0977,0.1001,0.1059,0.0939,0.0946,0.0698,0.0564,0.0369,0.0149,0.0162,-0.0038,-0.0084,-0.0037,-0.0036,-0.0054,-0.0054,-0.0044,-0.0043,-0.0042,-0.0041,0,0.0743,0.0767,0.0848,0.0905,0.0929,0.0993,0.1091,0.1153,0.1157,0.1225,0.122,0.1109,0.0935,0.0678,0.0411,0.0221,0.0003,-0.0081,-0.0008,-0.0043,-0.0171,-0.0165,-0.025,-0.0252,-0.0253,-0.0254,-0.0255,0,0.0772,0.0822,0.0921,0.0982,0.1011,0.1111,0.1184,0.1229,0.1314,0.1334,0.1375,0.1229,0.1156,0.0757,0.0397,0.0049,-0.0002,-0.0147,-0.0178,-0.0154,-0.0191,-0.0183,-0.0175,-0.0166,-0.0166,-0.0166,-0.0167,0,0.0836,0.0872,0.094,0.1073,0.1162,0.1285,0.1396,0.1487,0.1545,0.1594,0.1634,0.1576,0.1201,0.0858,0.0377,0.0147,-0.0091,-0.0161,-0.0154,-0.0111,-0.0081,-0.0115,-0.0109,-0.0167,-0.0167,-0.0167,-0.0167,-0.0167,0.0882,0.0948,0.1044,0.1171,0.1288,0.1441,0.1556,0.1678,0.1815,0.1903,0.1834,0.1754,0.1357,0.0755,0.0336,-0.0107,-0.0091,-0.0247,-0.0244,-0.0241,-0.0202,-0.0176,-0.0273,-0.0273,-0.0273,-0.0274,-0.0274,0,0.094,0.1017,0.1136,0.129,0.1429,0.1485,0.1683,0.1801,0.1967,0.2038,0.2067,0.1688,0.1295,0.0832,0.0177,-0.0209,-0.0231,-0.033,-0.0277,-0.0272,-0.0269,-0.023,-0.0309,-0.031,-0.0312,-0.0313,0,0,0.097,0.1087,0.115,0.1377,0.1497,0.1692,0.1815,0.1979,0.2087,0.2164,0.2121,0.2026,0.1452,0.0971,0.0442,0.006,-0.0011,-0.0006,0.0068,0.0202,0.021,-0.0171,-0.01,0,0,0,0,0]}],[{"header":{"parameterUnit":"m.s-1","parameterCategory":2,"la1":30.2991,"la2":30.254,"lo1":-89.0895,"lo2":-89.0444,"dy":0.0017,"dx":0.0017,"nx":28,"ny":28,"refTime":"2024-02-20T03:00:00:Z","depth":"4","parameterNumber":2,"parameterNumberName":"U-component_of_CURRENTS"},"data":[0,0,0,0,0,0,0,0,0,0,0,0,0,0,0,0,0,0,0,0,0,0,0,0,0,0,0,0,0,0,0,0,0,0,0,0,0,0,0,0,0,0,0,0,0,0,0,0,0,0,0,0,0,0,0,0,0,0,0.2278,0.2279,0,0.2361,0.2362,0.2363,0.2431,0.2432,0.2433,0.2434,0.2534,0.2536,0.2537,0,0,0,0,0,0,0,0,0,0,0,0,0,0.2167,0.2168,0.2278,0.2279,0.2281,0.2361,0.2362,0.2363,0.2431,0.2432,0.2433,0.2435,0.2533,0.2535,0.2537,0,0,0,0,0,0,0,0,0,0,0,0,0,0.2226,0.2169,0.2278,0.2327,0.2332,0.2361,0.2362,0.2363,0.2431,0.2432,0.2434,0.2435,0.2533,0.2535,0.2538,0.2524,0,0,0.2546,0.2547,0,0,0,0,0,0,0,0,0.2223,0.223,0.2318,0.2323,0.2329,0.239,0.236,0.2419,0.243,0.239,0.2434,0.2436,0.2488,0.2494,0.2502,0.2529,0.2533,0.2546,0.2547,0.2549,0.2549,0,0,0,0,0,0,0,0.2218,0.2227,0.2308,0.2319,0.2326,0.2341,0.235,0.2371,0.2428,0.2394,0.24,0.2413,0.2491,0.25,0.2505,0.2534,0.2546,0.2548,0.255,0.2551,0.2707,0.271,0,0,0,0,0,0,0.2213,0.2223,0.2305,0.2311,0.2282,0.2341,0.2352,0.2367,0.2427,0.2439,0.2412,0.2416,0.2494,0.2502,0.2509,0.2628,0.2549,0.2551,0.2552,0.2705,0.2708,0.271,0,0,0,0,0,0,0.221,0.222,0.2302,0.2271,0.2283,0.2342,0.2357,0.2367,0.2427,0.2441,0.2453,0.2467,0.2496,0.2505,0.2576,0.2627,0.2552,0.2555,0.2701,0.2705,0.2709,0.2781,0,0,0,0,0,0,0.2207,0.2218,0.225,0.227,0.2285,0.2352,0.2357,0.2368,0.2431,0.2439,0.2492,0.25,0.2498,0.2572,0.2579,0.263,0.2557,0.2698,0.2703,0.2708,0.2776,0.2787,0.2797,0,0,0,0,0,0.2203,0.2232,0.225,0.2262,0.2318,0.2353,0.2363,0.2406,0.2433,0.2465,0.2508,0.2501,0.2608,0.2576,0.2583,0.2636,0.2696,0.2702,0.2707,0.2771,0.2785,0.2797,0,0,0,0,0,0,0.2204,0.2243,0.2263,0.2306,0.2344,0.2367,0.241,0.2434,0.2492,0.2519,0.2528,0.2539,0.2624,0.2621,0.2586,0.2698,0.2653,0.266,0.2699,0.2712,0.2723,0.2734,0.2559,0,0,0,0,0,0.2216,0.2255,0.2285,0.2328,0.235,0.2389,0.242,0.2451,0.2492,0.2522,0.2558,0.2601,0.2643,0.2672,0.2706,0.276,0.2764,0.2802,0.2813,0.2822,0.2838,0.2878,0.2894,0.273,0.273,0.273,0,0,0.223,0.2259,0.2283,0.2333,0.2368,0.2406,0.2413,0.2476,0.2522,0.2522,0.2614,0.2646,0.2669,0.2737,0.2774,0.2746,0.2874,0.2829,0.2836,0.2848,0.2886,0.2902,0.2916,0.2734,0.2733,0.2732,0,0,0.2257,0.2304,0.2337,0.2372,0.2435,0.2457,0.2486,0.2539,0.2586,0.2659,0.2681,0.2748,0.2805,0.2834,0.2852,0.2943,0.2934,0.2962,0.3021,0.306,0.3073,0.3085,0.3118,0.3132,0.2961,0.2961,0.2962,0,0.2277,0.2317,0.2355,0.2392,0.2429,0.2485,0.2525,0.2576,0.2651,0.269,0.2705,0.2823,0.2849,0.2924,0.2967,0.2967,0.2987,0.2964,0.3072,0.3084,0.3095,0.3125,0.314,0.2966,0.2965,0.2965,0.2964,0,0.2306,0.236,0.2388,0.2451,0.2495,0.2548,0.2607,0.2675,0.2737,0.2777,0.2888,0.293,0.2995,0.3021,0.3026,0.3124,0.3113,0.3083,0.3033,0.3115,0.3143,0.3156,0.2972,0.297,0.2969,0.2968,0,0,0.2288,0.2388,0.2403,0.2443,0.2534,0.2566,0.2658,0.2737,0.2815,0.2893,0.2981,0.3067,0.3104,0.3129,0.3153,0.3198,0.3297,0.3187,0.3187,0.321,0.3394,0.3181,0.3175,0.3288,0.329,0.3293,0.3384,0,0.2304,0.2374,0.2426,0.2509,0.2547,0.2628,0.2707,0.2793,0.2882,0.2986,0.3048,0.3152,0.314,0.3203,0.3242,0.3296,0.3338,0.3276,0.3321,0.3322,0.3113,0.3184,0.3301,0.3394,0.3397,0.3399,0.3401,0,0.2301,0.2353,0.243,0.2538,0.2566,0.2635,0.2771,0.2854,0.2998,0.3073,0.3171,0.3232,0.3339,0.3314,0.342,0.3386,0.3406,0.3427,0.343,0.3214,0.3133,0.3295,0.3425,0.3423,0.3422,0.342,0.3418,0,0.2239,0.2351,0.2416,0.2453,0.2584,0.2653,0.2742,0.2887,0.2972,0.3155,0.3229,0.3345,0.3428,0.3473,0.3515,0.3492,0.3611,0.3567,0.3389,0.3374,0.3507,0.3493,0.3636,0.3636,0.3635,0.3635,0.3635,0,0.2204,0.2262,0.2406,0.2439,0.2539,0.2645,0.2779,0.2887,0.3052,0.3144,0.3282,0.3354,0.3478,0.3543,0.3559,0.3509,0.3638,0.3415,0.3384,0.3536,0.3525,0.3516,0.3501,0.3638,0.3638,0.3637,0.3636,0,0.2118,0.2214,0.2297,0.2453,0.2513,0.2591,0.2784,0.2863,0.3047,0.3174,0.3238,0.34,0.3485,0.3561,0.3654,0.3541,0.3537,0.3485,0.3664,0.364,0.3269,0.3257,0.3294,0.3287,0.3281,0.3276,0.3272,0,0.2074,0.2112,0.2288,0.2342,0.2425,0.2563,0.2645,0.2844,0.2925,0.3159,0.3188,0.335,0.3428,0.3374,0.3483,0.349,0.3445,0.3414,0.3321,0.3267,0.3236,0.3233,0.3229,0.3263,0.3262,0.326,0.3259,0,0.1985,0.2075,0.2143,0.2256,0.2354,0.2444,0.2584,0.2622,0.2835,0.3018,0.3064,0.3104,0.3188,0.3239,0.3268,0.3265,0.3418,0.3353,0.3364,0.3277,0.3231,0.3204,0.3207,0.3239,0.3242,0.3244,0.3245,0,0.1928,0.1953,0.2058,0.2136,0.2246,0.228,0.2378,0.2457,0.2559,0.2808,0.2819,0.2983,0.3153,0.3124,0.3152,0.3134,0.3083,0.2965,0.2996,0.3019,0.2884,0.2783,0.2637,0,0,0,0,0,0.185,0.1856,0.1921,0.1987,0.2084,0.2149,0.2305,0.2404,0.2607,0.2564,0.2685,0.2749,0.2789,0.2883,0.2809,0.3043,0.3102,0.2943,0.2984,0.3129,0.3152,0.3017,0,0,0,0,0,0,0.1793,0.1852,0.1867,0.1841,0.1855,0.1939,0.2028,0.2167,0.2165,0.2379,0.2418,0.2577,0.2666,0.2797,0.2752,0.2781,0.2748,0.3059,0.3052,0.3116,0.3136,0.3155,0.3024,0,0,0,0,0]},{"header":{"parameterUnit":"m.s-1","parameterCategory":2,"la1":30.2991,"la2":30.254,"lo1":-89.0895,"lo2":-89.0444,"dy":0.0017,"dx":0.0017,"nx":28,"ny":28,"refTime":"2024-02-20T03:00:00:Z","depth":"4","parameterNumber":3,"parameterNumberName":"V-component_of_CURRENTS"},"data":[0,0,0,0,0,0,0,0,0,0,0,0,0,0,0,0,0,0,0,0,0,0,0,0,0,0,0,0,0,0,0,0,0,0,0,0,0,0,0,0,0,0,0,0,0,0,0,0,0,0,0,0,0,0,0,0,0,0,0.0186,0.0185,0,0.0131,0.013,0.013,0.0096,0.0096,0.0096,0.0096,0.0014,0.0012,0.0009,0,0,0,0,0,0,0,0,0,0,0,0,0,0.0217,0.0217,0.0186,0.0185,0.0185,0.0131,0.013,0.0129,0.0096,0.0096,0.0096,0.0096,0.0014,0.0012,0.0009,0,0,0,0,0,0,0,0,0,0,0,0,0,0.0186,0.0217,0.0186,0.0163,0.016,0.0131,0.013,0.0129,0.0096,0.0096,0.0096,0.0096,0.0015,0.0012,0.0009,-0.0011,0,0,-0.0001,-0.0002,0,0,0,0,0,0,0,0,0.0188,0.0184,0.0167,0.0164,0.0162,0.0122,0.0111,0.0082,0.0096,0.0119,0.0096,0.0096,0.0048,0.0042,0.003,-0.0014,-0.0018,-0.0001,-0.0003,-0.0005,-0.0006,0,0,0,0,0,0,0,0.019,0.0186,0.0162,0.0166,0.0163,0.014,0.0136,0.0105,0.0083,0.0117,0.0115,0.0111,0.0047,0.0033,0.0028,-0.0019,-0.0001,-0.0004,-0.0006,-0.0007,-0.0071,-0.007,0,0,0,0,0,0,0.0202,0.0189,0.0164,0.0161,0.0177,0.014,0.0135,0.0133,0.0083,0.0077,0.0111,0.011,0.0039,0.0032,0.0025,0.0023,-0.0005,-0.0008,-0.001,-0.0071,-0.0071,-0.007,0,0,0,0,0,0,0.0203,0.0201,0.0166,0.0175,0.0169,0.014,0.0138,0.0132,0.0126,0.008,0.0072,0.0112,0.0039,0.003,0.0009,0.0019,-0.0009,-0.0012,-0.0071,-0.0071,-0.007,0.0003,0,0,0,0,0,0,0.0204,0.0201,0.0207,0.0176,0.0169,0.0159,0.0138,0.0131,0.0124,0.0122,0.0078,0.007,0.0038,0.0015,0.0006,0.0014,-0.0015,-0.0072,-0.0071,-0.0071,0.0001,0.0006,0.0011,0,0,0,0,0,0.0206,0.0216,0.0208,0.0205,0.0177,0.016,0.0154,0.0132,0.0125,0.0126,0.0099,0.0071,0.0012,0.0013,0.0002,0.0009,-0.0072,-0.0071,-0.0071,-0.0002,0.0005,0.0011,0,0,0,0,0,0,0.0233,0.0213,0.0203,0.0207,0.0189,0.0155,0.0156,0.014,0.0119,0.012,0.0075,0.0065,0.005,0.0019,0.0021,-0.0009,-0.0035,-0.0036,0.0021,0.0027,0.0032,0.0053,-0.0017,0,0,0,0,0,0.0242,0.0246,0.0219,0.0224,0.0218,0.0189,0.0181,0.0167,0.0143,0.0134,0.0102,0.007,0.0043,0.0029,-0.0002,-0.0017,-0.0053,-0.002,-0.0015,-0.001,-0.0,-0.0048,-0.0045,-0.0068,-0.0068,-0.0068,0,0,0.0254,0.0244,0.0246,0.023,0.0215,0.0218,0.0184,0.018,0.0183,0.0128,0.0123,0.0087,0.0043,0.0028,0.0018,0.0005,-0.0024,-0.0009,-0.0005,0.0003,-0.0047,-0.0045,-0.0043,-0.0068,-0.0068,-0.0068,0,0,0.0282,0.0272,0.0285,0.0274,0.0261,0.0246,0.025,0.0221,0.0209,0.0197,0.016,0.0133,0.0092,0.0061,0.0041,0.0056,0.0007,0.0046,0.0089,0.0043,0.0045,0.0046,0.0003,-0.0001,0.0048,0.0048,0.0048,0,0.0297,0.0311,0.0286,0.0295,0.0299,0.0265,0.0284,0.0264,0.0233,0.0228,0.0208,0.0147,0.0108,0.0087,0.0094,0.0068,0.0037,0.0071,0.0051,0.0051,0.0051,0.0006,0.0001,0.0052,0.0051,0.0051,0.0051,0,0.033,0.0345,0.0353,0.0358,0.0357,0.0367,0.0344,0.0338,0.0321,0.03,0.0275,0.0215,0.0182,0.016,0.0133,0.0115,0.0091,0.0064,0.0039,0.0058,0.0009,0.0003,0.0057,0.0056,0.0055,0.0054,0,0,0.0355,0.0375,0.0379,0.04,0.0395,0.04,0.0408,0.0406,0.0419,0.0369,0.0371,0.0312,0.0278,0.0253,0.0204,0.0161,0.0128,0.0123,0.0118,0.0087,0.0031,0.0019,0.001,0.01,0.01,0.0099,-0.0002,0,0.0392,0.0436,0.0433,0.0479,0.0503,0.0483,0.0497,0.0488,0.0473,0.0463,0.0391,0.0375,0.0313,0.0303,0.0249,0.0163,0.0116,0.0159,0.0011,0.0006,-0.0001,0.0004,0.0097,-0.0007,-0.0009,-0.001,-0.0011,0,0.0425,0.0456,0.0512,0.0553,0.0561,0.0582,0.0609,0.062,0.0594,0.058,0.0541,0.0484,0.0419,0.0362,0.0217,0.0249,0.0153,0.0075,0.0069,0.003,-0.0017,-0.0033,-0.0023,-0.0022,-0.0021,-0.002,-0.0019,0,0.0461,0.051,0.0565,0.0575,0.0611,0.0635,0.0659,0.0659,0.0688,0.0661,0.067,0.057,0.053,0.0396,0.0236,0.0229,0.0069,0.0034,-0.0073,-0.0075,-0.0067,-0.0067,-0.007,-0.0069,-0.0069,-0.0069,-0.0069,0,0.0498,0.054,0.059,0.0615,0.069,0.0694,0.077,0.0768,0.0789,0.0831,0.0741,0.0736,0.0539,0.0421,0.0265,0.0082,0.0086,-0.0061,-0.01,-0.0034,-0.003,-0.0072,-0.0071,-0.0073,-0.0072,-0.0071,-0.007,0,0.0523,0.0553,0.0623,0.0682,0.071,0.0766,0.0859,0.0907,0.0916,0.0964,0.0961,0.086,0.0704,0.0497,0.0271,0.0132,-0.0049,-0.0117,-0.0023,-0.0056,-0.0172,-0.0166,-0.0246,-0.0247,-0.0248,-0.0249,-0.025,0,0.0538,0.0579,0.0678,0.0734,0.0768,0.086,0.0924,0.0969,0.103,0.1041,0.1062,0.0933,0.0834,0.0517,0.0288,-0.0022,-0.0071,-0.017,-0.0182,-0.0159,-0.019,-0.0182,-0.0175,-0.0251,-0.0252,-0.0252,-0.0252,0,0.057,0.0611,0.067,0.0791,0.0874,0.0981,0.1077,0.1129,0.1178,0.1183,0.1148,0.0977,0.0796,0.0529,0.0286,0.0064,-0.0109,-0.0182,-0.0182,-0.0194,-0.0167,-0.0194,-0.0186,-0.0256,-0.0255,-0.0255,-0.0255,0,0.0596,0.0648,0.0735,0.084,0.0956,0.1066,0.1117,0.1182,0.1238,0.1239,0.1224,0.1024,0.0907,0.0574,0.0357,0.013,0.0061,-0.0022,-0.0031,-0.003,0.0054,0.0121,0.0093,0,0,0,0,0,0.0617,0.0678,0.0777,0.0896,0.1015,0.1087,0.1202,0.1244,0.1287,0.1273,0.1254,0.1085,0.0755,0.0621,0.0392,0.0314,0.0009,0.0035,-0.0094,-0.0275,-0.0271,-0.0211,0,0,0,0,0,0,0.063,0.0721,0.0773,0.0926,0.1016,0.1152,0.1231,0.1259,0.1261,0.1263,0.11,0.1017,0.0704,0.0885,0.0385,0.0316,0.0199,-0.0114,-0.012,-0.0278,-0.0274,-0.0271,-0.0207,0,0,0,0,0]}]]